Wind_Speed
17 21 28 30 29 25 24 27 31 35 36 38 41 45 46 46 45 48 50 48 46 42
18 20 21 24 27 30 27 27 26 28 31 33 35 40 45 48 49 48 48 51 48 44
18 20 22 24 26 27 27 24 26 25 28 30 32 35 41 44 45 46 46 47 48 45
11 14 18 20 23 25 25 25 25 25 25 26 29 30 33 38 41 42 41 41 44 41
10 10 12 16 19 21 22 22 23 23 21 23 25 26 28 30 33 36 36 37 39 36
13 11 13 14 12 13 14 13 14 15 15 18 21 22 23 25 28 31 33 35 32 31
11 12 15 16 14 12 12 15 14 13 15 17 19 21 21 24 26 27 27 27 28 27
8 9 10 12 13 14 14 16 16 15 16 15 16 18 20 21 21 21 22 20 18 17
6 8 8 8 9 9 9 14 18 22 14 11 11 11 10 13 15 16 14 14 14 15
4 5 5 5 5 4 3 3 5 5 5 4 4 6 9 12 13 13 13 14 14 13
6 6 6 6 5 5 4 2 4 5 8 10 11 11 12 11 10 10 9 9 10 10
12 11 12 11 9 9 8 9 10 10 10 10 12 10 9 8 7 6 6 3 2 3
16 15 16 16 14 13 13 14 13 12 10 7 8 9 6 3 3 2 0 2 4 6
19 19 18 17 15 13 12 11 10 7 6 7 6 7 6 5 3 2 3 5 7 7
Wind_Direction
263 264 259 255 251 252 251 258 262 262 262 260 250 247 247 247 247 244 239 240 241 241
268 265 265 266 263 261 256 256 259 262 262 262 257 251 246 247 246 247 244 241 241 241
274 272 268 265 264 264 260 257 260 259 260 261 260 256 252 248 246 245 245 241 238 235
298 290 279 275 272 266 261 257 257 260 261 258 258 258 257 253 250 249 248 244 240 234
303 304 293 272 266 265 262 259 259 261 264 261 259 257 256 253 252 247 246 241 236 231
277 292 307 312 294 280 273 266 270 264 262 266 262 256 254 250 244 240 236 235 227 223
277 278 285 293 299 307 311 312 301 287 276 260 258 253 248 244 236 231 227 222 221 225
331 319 303 293 286 285 287 297 305 299 281 274 261 252 247 236 226 218 212 205 204 215
331 323 333 324 314 299 296 274 275 278 270 265 253 250 234 227 201 190 196 204 214 221
351 342 335 332 328 321 311 267 250 245 247 228 189 163 166 176 181 188 200 213 220 225
38 36 30 29 39 50 50 81 119 133 136 144 147 161 174 184 188 186 183 207 215 225
59 58 59 64 73 84 96 107 113 121 130 138 138 146 157 167 160 171 193 216 243 253
74 78 84 89 93 99 107 114 124 127 126 124 136 141 145 151 81 82 215 284 297 300
82 82 83 91 98 102 105 110 108 103 102 101 103 100 83 74 49 345 309 301 300 289
Height
1460 1460 1461 1461 1462 1463 1464 1462 1462 1463 1464 1465 1467 1469 1472 1474 1477 1479 1482 1485 1487 1491
1455 1455 1455 1455 1455 1454 1455 1455 1456 1456 1457 1458 1459 1460 1461 1463 1466 1469 1471 1475 1478 1481
1450 1450 1450 1449 1449 1449 1449 1449 1449 1449 1449 1450 1451 1452 1454 1455 1457 1459 1462 1464 1467 1470
1447 1446 1445 1445 1444 1444 1443 1443 1443 1443 1443 1443 1443 1444 1446 1449 1452 1453 1456 1459 1462 1457
1444 1443 1441 1440 1439 1438 1438 1437 1436 1436 1438 1439 1438 1438 1439 1441 1443 1446 1450 1452 1454 1456
1441 1440 1439 1437 1436 1435 1434 1432 1431 1432 1433 1435 1435 1436 1435 1436 1438 1440 1442 1445 1449 1453
1437 1435 1435 1434 1432 1432 1431 1430 1430 1429 1430 1431 1431 1432 1431 1432 1432 1436 1439 1443 1448 1452
1434 1432 1431 1430 1429 1429 1428 1427 1426 1427 1428 1428 1429 1430 1430 1431 1432 1433 1438 1442 1447 1452
1433 1431 1431 1429 1427 1426 1425 1425 1424 1426 1428 1428 1428 1429 1432 1436 1435 1436 1441 1445 1449 1451
1432 1431 1430 1429 1427 1426 1425 1425 1426 1427 1428 1428 1429 1431 1435 1440 1440 1440 1443 1446 1448 1447
1432 1430 1430 1429 1428 1428 1428 1429 1429 1431 1432 1433 1434 1436 1439 1441 1441 1441 1442 1445 1449 1449
1434 1433 1432 1432 1431 1432 1432 1434 1435 1437 1438 1440 1439 1438 1440 1441 1440 1442 1444 1447 1448 1448
1437 1436 1435 1436 1437 1438 1439 1439 1441 1442 1443 1443 1442 1443 1442 1444 1444 1444 1445 1447 1447 1447
1442 1442 1442 1442 1443 1444 1445 1445 1446 1446 1447 1446 1446 1446 1446 1446 1446 1446 1447 1446 1446 1446